| time (UTC) | temp C | wind direction | speed KPH | gust KPH | rain 1hr cm | rain 24hr cm | rain mn cm | humidity % | barometer mb |
| 20260503220004 | 16 | 246 | 35.4 | 51.5 | 0.00 | 0.00 | 0.00 | 40 | 1011.7 |
| 20260503214004 | 16 | 243 | 33.8 | 51.5 | 0.00 | 0.00 | 0.00 | 34 | 1011.5 |
| 20260503213005 | 16 | 240 | 32.2 | 45.1 | 0.00 | 0.00 | 0.00 | 35 | 1011.8 |
| 20260503212004 | 16 | 250 | 38.6 | 37.0 | 0.00 | 0.00 | 0.00 | 34 | 1011.7 |
| 20260503211004 | 16 | 233 | 29.0 | 35.4 | 0.00 | 0.00 | 0.00 | 34 | 1011.7 |
| 20260503205004 | 16 | 238 | 35.4 | 37.0 | 0.00 | 0.00 | 0.00 | 31 | 1011.9 |
| 20260503204005 | 16 | 240 | 41.8 | 48.3 | 0.00 | 0.00 | 0.00 | 31 | 1012.1 |
| 20260503203004 | 16 | 232 | 35.4 | 45.1 | 0.00 | 0.00 | 0.00 | 29 | 1012.0 |
| 20260503202004 | 16 | 238 | 27.4 | 33.8 | 0.00 | 0.00 | 0.00 | 33 | 1012.1 |
| 20260503201005 | 16 | 239 | 37.0 | 46.7 | 0.00 | 0.00 | 0.00 | 30 | 1012.4 |
| 20260503195005 | 17 | 221 | 27.4 | 41.8 | 0.00 | 0.00 | 0.00 | 29 | 1012.3 |
| 20260503194005 | 17 | 236 | 27.4 | 45.1 | 0.00 | 0.00 | 0.00 | 30 | 1012.4 |
| 20260503193004 | 17 | 228 | 20.9 | 45.1 | 0.00 | 0.00 | 0.00 | 31 | 1012.7 |
| 20260503192004 | 17 | 234 | 33.8 | 41.8 | 0.00 | 0.00 | 0.00 | 31 | 1012.7 |
| 20260503190004 | 16 | 223 | 27.4 | 37.0 | 0.00 | 0.00 | 0.00 | 30 | 1013.1 |
| 20260503185005 | 17 | 240 | 27.4 | 45.1 | 0.00 | 0.00 | 0.00 | 32 | 1013.2 |
| 20260503184004 | 17 | 236 | 35.4 | 35.4 | 0.00 | 0.00 | 0.00 | 29 | 1013.4 |
| 20260503183004 | 17 | 237 | 32.2 | 46.7 | 0.00 | 0.00 | 0.00 | 29 | 1013.4 |
| 20260503182005 | 16 | 240 | 32.2 | 37.0 | 0.00 | 0.00 | 0.00 | 29 | 1013.4 |
| 20260503181005 | 16 | 236 | 38.6 | 45.1 | 0.00 | 0.00 | 0.00 | 31 | 1013.5 |
| 20260503180005 | 16 | 232 | 27.4 | 41.8 | 0.00 | 0.00 | 0.00 | 32 | 1013.7 |
| 20260503175004 | 16 | 240 | 29.0 | 41.8 | 0.00 | 0.00 | 0.00 | 28 | 1014.0 |
| 20260503174006 | 16 | 238 | 33.8 | 46.7 | 0.00 | 0.00 | 0.00 | 29 | 1014.2 |
| 20260503173004 | 16 | 232 | 35.4 | 48.3 | 0.00 | 0.00 | 0.00 | 27 | 1014.2 |
| 20260503172005 | 16 | 236 | 33.8 | 45.1 | 0.00 | 0.00 | 0.00 | 32 | 1014.4 |
| 20260503151004 | 13 | 241 | 22.5 | 33.8 | 0.00 | 0.00 | 0.00 | 46 | 1015.7 |
| 20260502231006 | 8 | 244 | 0.0 | 4.8 | 0.00 | 0.00 | 0.00 | 41 | 1016.7 |
| 20260502230008 | 9 | 254 | 1.6 | 16.1 | 0.00 | 0.00 | 0.00 | 39 | 1016.8 |
| 20260502225005 | 9 | 258 | 3.2 | 11.3 | 0.00 | 0.00 | 0.00 | 40 | 1017.0 |
| 20260502224011 | 9 | 227 | 4.8 | 11.3 | 0.00 | 0.00 | 0.00 | 40 | 1016.9 |
| 20260502222006 | 9 | 224 | 9.7 | 11.3 | 0.00 | 0.00 | 0.00 | 40 | 1017.0 |
| 20260502221007 | 8 | 25 | 0.0 | 8.0 | 0.00 | 0.00 | 0.00 | 42 | 1017.2 |